Regional Weather Roundup
Issued by NWS

Home | Current Version | Previous Version | Graphics & Text | Print | Product List | Glossary Off
Versions: 1 2 3 4 5 6 7 8 9 10 11 12 13 14 15 16 17 18 19 20 21 22 23 24 25 26 27 28 29 30 31 32 33 34 35 36 37 38 39 40 41 42 43 44 45 46 47 48 49 50

000
ASUS43 KMKX 211000
RWRWI

WISCONSIN REGIONAL WEATHER ROUNDUP
NATIONAL WEATHER SERVICE MILWAUKEE/SULLIVAN WI
500 AM CDT TUE OCT 21 2014

NOTE: "FAIR" INDICATES FEW OR NO CLOUDS BELOW 12,000 FEET WITH NO
SIGNIFICANT WEATHER AND/OR OBSTRUCTIONS TO VISIBILITY.

WIZ001-002-006>008-014>016-023>028-211100-
NORTHWEST WISCONSIN

CITY           SKY/WX    TMP DP  RH WIND       PRES   REMARKS
SUPERIOR ARPT  CLOUDY    44  39  83 E3        30.19R
ASHLAND        CLOUDY    43  37  79 NE5       30.20R
HAYWARD        CLOUDY    43  35  73 NE6       30.17R
SIREN          MOCLDY    37  35  93 CALM      30.16R
CUMBERLAND     CLOUDY    43  36  75 E5        30.15R
RICE LAKE      CLOUDY    46  37  71 NE5       30.17R
CHETEK         CLOUDY    45  36  71 NE6       30.16R
LADYSMITH      MOCLDY    38  34  85 CALM      30.17S
EAU CLAIRE     CLEAR     33  33 100 CALM      30.15R FOG
MENOMONIE      CLEAR     36  35  96 CALM      30.15R
NEW RICHMOND   FOG       32  32 100 CALM      30.15S VSB 1/2
OSCEOLA        CLOUDY    31  31 100 CALM      30.18S FOG
$$

WIZ003>005-009-010-017-018-211100-
NORTH CENTRAL WISCONSIN

CITY           SKY/WX    TMP DP  RH WIND       PRES   REMARKS
MANITOWISH WTR CLOUDY    38  36  94 N6        30.15R WCI  33
ARBOR VITAE    CLOUDY    39  37  91 NE5       30.14S
WOODRUFF       CLOUDY    39  37  91 NE5       30.14S
RHINELANDER    CLOUDY    39  34  82 NE5       30.15R
EAGLE RIVER    CLOUDY    38  37  93 N5        30.14R WCI  35
LAND O LAKES   CLOUDY    38  36  91 NE5       30.15R WCI  35
PHILLIPS       CLOUDY    39  34  81 NE7       30.15R WCI  34
TOMAHAWK       CLOUDY    40  33  77 N3        30.15R
MEDFORD        CLOUDY    39  34  83 NE7       30.14R WCI  34
MERRILL        CLOUDY    41  35  80 NE5       30.14R
$$

WIZ029-030-035-036-043>047-211100-
CENTRAL WISCONSIN

CITY           SKY/WX    TMP DP  RH WIND       PRES   REMARKS
WAUSAU         CLOUDY    42  34  73 N7        30.13R
MOSINEE        CLOUDY    39  36  87 N13       30.13S WCI  32
MARSHFIELD     CLEAR     39  35  86 NE7       30.13R WCI  34
STEVENS POINT  CLOUDY    36  34  91 N5        30.13R WCI  32
WAUPACA        PTCLDY    42  37  83 CALM      30.13R
WAUTOMA        NOT AVBL
WISC RAPIDS    CLEAR     40  34  79 N9        30.15R WCI  34
CAMP DOUGLAS   NOT AVBL
$$

WIZ011>013-019>022-031-037>040-048>050-211100-
NORTHEAST WISCONSIN

CITY           SKY/WX    TMP DP  RH WIND       PRES   REMARKS
ANTIGO         CLOUDY    39  35  85 N12       30.13R WCI  32
SHAWANO        CLOUDY    45  38  75 N10G18    30.12R
OCONTO         CLOUDY    42  38  87 N7        30.11R
STURGEON BAY   CLOUDY    45  37  76 N17G24    30.10R
GREEN BAY      CLOUDY    44  38  79 N13       30.11R
MANITOWOC      NOT AVBL
APPLETON       CLOUDY    43  36  75 N13       30.11R
CLINTONVILLE   CLOUDY    41  36  81 N5        30.11R
OSHKOSH        CLOUDY    44  38  79 N12       30.11R
$$

WIZ032>034-041-042-053>061-211100-
SOUTHWEST WISCONSIN

CITY           SKY/WX    TMP DP  RH WIND       PRES   REMARKS
LA CROSSE      CLEAR     39  37  92 N6        30.14R WCI  35
SPARTA         CLEAR     30  30  99 CALM      30.14R
VIROQUA        CLEAR     37  37 100 CALM      30.12R
BOSCOBEL       PTCLDY    34  31  88 CALM      30.14R FOG
PRAIRIE DU CHI CLEAR     37  35  93 CALM      30.12R
PLATTEVILLE    CLEAR     38  36  92 CALM      30.11R
$$

WIZ056-057-062-063-064-067-068-211100-
SOUTH CENTRAL WISCONSIN

CITY           SKY/WX    TMP DP  RH WIND       PRES   REMARKS
REEDSBURG      CLOUDY    46  39  77 N3        30.10R
BARABOO/DELLS  PTCLDY    45  37  72 N3        30.10R
LONE ROCK      NOT AVBL
MINERAL POINT  CLEAR     41  37  87 N5        30.09S
MADISON        CLOUDY    47  40  76 N7        30.10R
MIDDLETON      CLOUDY    48  40  74 N3        30.10R
WATERTOWN      CLOUDY    46  38  75 N8        30.08R
MONROE         CLEAR     43  37  81 N6        30.08R
JANESVILLE     MOCLDY    46  39  76 N5        30.07R
$$

WIZ051-052-058>065-066-070>072-211100-
SOUTHEAST WISCONSIN

CITY           SKY/WX    TMP DP  RH WIND       PRES   REMARKS
MILWAUKEE      MOCLDY    46  39  76 N10       30.07R
WAUKESHA       CLOUDY    43  36  75 N8        30.08R
MILWAUKEE/TIMM CLOUDY    45  36  70 N9        30.08R
RACINE         CLOUDY    46  40  79 N8        30.08R
BURLINGTON     PTCLDY    43  37  77 N5        30.07R
KENOSHA        PTCLDY    44  39  82 N6        30.06R
FOND DU LAC    CLOUDY    45  37  73 N9        30.10R
SHEBOYGAN      CLOUDY    45  39  79 N7        30.08R
WEST BEND      CLOUDY    43  36  75 N9        30.07R
JUNEAU         MOCLDY    43  37  78 N8        30.09S
$$

LSZ147-162-211100-
LAKE SUPERIOR

STATION/POSITION TIME  TEMP    WIND        PRES    WAVE
                       AIR SEA DIR/SP/G            HT/PER
                 (UTC) (F)     (DEG/KT/KT) (MB)    (FT/S)
W MID LAKE BUOY  0850   42 46   60/ 12/ 16 1022.8R   3/ 5
DEVILS ISLAND    0900   43      40/  8/  9 1023.2R
PORT WING        0940   44     110/  5/  9 1022.4R
SAXON HARBOR     0900   46      40/ 11/ 13 1022.0R
$$

LMZ867-665-643>646-211100-
LAKE MICHIGAN

STATION/POSITION TIME  TEMP    WIND        PRES    WAVE
                       AIR SEA DIR/SP/G            HT/PER
                 (UTC) (F)     (DEG/KT/KT) (MB)    (FT/S)
CHAMBERS ISLAND  0900   45     330/ 17/ 22 1018.6R
N MID LAKE BUOY  0850   46 51  360/ 21/ 25 1017.3R   4/ 5
NORTHPORT PIER   0900   46     360/ 19/ 23 1018.3R
SISTER BAY       0927           10/ 17/ 20   N/A
KEWAUNEE LAKESHO 0900   45     350/ 10/ 13 1017.2R
SHEBOYGAN LAKESH 0900   46 50  330/ 12/ 15 1018.5R
PORT WASHINGTON  0940   46     330/  5/  9 1019.0R
ATWATER BUOY     0900   48     340/ 14/ 17 1018.6R
MILWAUKEE LAKESH 0900   47     330/ 11/ 13   N/A
S MID LAKE BUOY  0850   49 54  360/ 19/ 21 1016.4R   5/ 6
KENOSHA   LAKESH 0900   49     350/ 12/ 14 1016.9S
$$

TC  - TEMPERATURE IN CELSIUS
VSB - VISIBILITY IN STATUTE MILES
WCI - WIND CHILL INDEX
HX  - HEAT INDEX



USA.gov is the U.S. government's official web portal to all federal, state and local government web resources and services.